TimeCDT,TemperatureF,Dew PointF,Humidity,Sea Level PressureIn,VisibilityMPH,Wind Direction,Wind SpeedMPH,Gust SpeedMPH,PrecipitationIn,Events,Conditions,WindDirDegrees,DateUTC
12:15 AM,64.4,42.8,45,30.01,10.0,NNW,21.9,28.8,N/A,,Clear,340,2012-10-04 05:15:00
12:35 AM,60.8,41.0,48,30.04,10.0,North,24.2,35.7,N/A,,Clear,350,2012-10-04 05:35:00
12:55 AM,59.0,39.2,48,30.05,10.0,NNW,20.7,26.5,N/A,,Clear,340,2012-10-04 05:55:00
1:15 AM,57.2,37.4,48,30.07,10.0,North,24.2,31.1,N/A,,Clear,350,2012-10-04 06:15:00
1:35 AM,55.4,37.4,51,30.08,10.0,North,23.0,29.9,N/A,,Clear,350,2012-10-04 06:35:00
1:55 AM,53.6,37.4,54,30.09,10.0,North,25.3,31.1,N/A,,Clear,360,2012-10-04 06:55:00
2:15 AM,53.6,35.6,51,30.10,10.0,North,26.5,31.1,N/A,,Clear,360,2012-10-04 07:15:00
2:35 AM,53.6,35.6,51,30.11,10.0,North,18.4,26.5,N/A,,Partly Cloudy,360,2012-10-04 07:35:00
2:55 AM,53.6,35.6,51,30.13,10.0,North,20.7,25.3,N/A,,Mostly Cloudy,350,2012-10-04 07:55:00
3:15 AM,53.6,35.6,51,30.13,10.0,North,19.6,26.5,N/A,,Overcast,350,2012-10-04 08:15:00
3:35 AM,51.8,37.4,58,30.14,10.0,NNW,27.6,32.2,N/A,,Overcast,340,2012-10-04 08:35:00
3:55 AM,51.8,37.4,58,30.15,10.0,North,24.2,31.1,N/A,,Overcast,350,2012-10-04 08:55:00
4:15 AM,50.0,35.6,58,30.16,10.0,North,21.9,29.9,N/A,,Overcast,350,2012-10-04 09:15:00
4:35 AM,50.0,35.6,58,30.17,10.0,NNW,18.4,25.3,N/A,,Overcast,340,2012-10-04 09:35:00
4:55 AM,48.2,35.6,62,30.19,10.0,North,24.2,31.1,N/A,,Overcast,360,2012-10-04 09:55:00
5:15 AM,48.2,35.6,62,30.19,10.0,North,23.0,29.9,N/A,,Overcast,350,2012-10-04 10:15:00
5:35 AM,48.2,33.8,58,30.20,10.0,North,20.7,32.2,N/A,,Overcast,350,2012-10-04 10:35:00
5:55 AM,48.2,33.8,58,30.21,10.0,North,17.3,31.1,N/A,,Overcast,350,2012-10-04 10:55:00
6:15 AM,46.4,32.0,57,30.23,10.0,North,19.6,31.1,N/A,,Overcast,350,2012-10-04 11:15:00
6:35 AM,46.4,32.0,57,30.23,10.0,North,19.6,26.5,N/A,,Overcast,350,2012-10-04 11:35:00
6:55 AM,46.4,32.0,57,30.25,10.0,North,19.6,23.0,N/A,,Overcast,350,2012-10-04 11:55:00
7:15 AM,46.4,30.2,53,30.26,10.0,NNW,20.7,25.3,N/A,,Overcast,340,2012-10-04 12:15:00
7:35 AM,46.4,30.2,53,30.27,10.0,North,16.1,20.7,N/A,,Overcast,350,2012-10-04 12:35:00
7:55 AM,46.4,30.2,53,30.28,10.0,North,18.4,25.3,N/A,,Overcast,350,2012-10-04 12:55:00
8:15 AM,44.6,30.2,57,30.29,10.0,North,15.0,23.0,N/A,,Overcast,350,2012-10-04 13:15:00
8:35 AM,46.4,30.2,53,30.29,10.0,North,15.0,23.0,N/A,,Overcast,350,2012-10-04 13:35:00
8:55 AM,46.4,30.2,53,30.31,10.0,NNW,16.1,-,N/A,,Overcast,340,2012-10-04 13:55:00
9:15 AM,46.4,30.2,53,30.31,10.0,North,16.1,-,N/A,,Mostly Cloudy,350,2012-10-04 14:15:00
9:35 AM,48.2,30.2,50,30.31,10.0,North,18.4,21.9,N/A,,Partly Cloudy,350,2012-10-04 14:35:00
9:55 AM,48.2,30.2,50,30.31,10.0,North,21.9,27.6,N/A,,Clear,350,2012-10-04 14:55:00
10:15 AM,48.2,30.2,50,30.32,10.0,North,19.6,25.3,N/A,,Clear,360,2012-10-04 15:15:00
10:35 AM,50.0,30.2,47,30.32,10.0,North,16.1,24.2,N/A,,Clear,10,2012-10-04 15:35:00
10:55 AM,51.8,30.2,44,30.32,10.0,North,19.6,24.2,N/A,,Clear,360,2012-10-04 15:55:00
11:15 AM,51.8,30.2,44,30.31,10.0,North,15.0,21.9,N/A,,Clear,360,2012-10-04 16:15:00
11:35 AM,51.8,30.2,44,30.32,10.0,North,13.8,21.9,N/A,,Clear,10,2012-10-04 16:35:00
11:55 AM,53.6,30.2,41,30.32,10.0,NNW,17.3,-,N/A,,Clear,340,2012-10-04 16:55:00
12:15 PM,53.6,32.0,44,30.32,10.0,North,13.8,21.9,N/A,,Clear,350,2012-10-04 17:15:00
12:35 PM,53.6,30.2,41,30.31,10.0,North,16.1,21.9,N/A,,Clear,10,2012-10-04 17:35:00
12:55 PM,53.6,30.2,41,30.31,10.0,NNE,16.1,20.7,N/A,,Clear,30,2012-10-04 17:55:00
1:35 PM,55.4,30.2,38,30.30,10.0,North,15.0,21.9,N/A,,Clear,360,2012-10-04 18:35:00
1:55 PM,55.4,30.2,38,30.29,10.0,North,18.4,21.9,N/A,,Clear,10,2012-10-04 18:55:00
2:15 PM,55.4,30.2,38,30.28,10.0,NNE,12.7,19.6,N/A,,Clear,20,2012-10-04 19:15:00
2:35 PM,57.2,30.2,36,30.27,10.0,North,11.5,17.3,N/A,,Clear,360,2012-10-04 19:35:00
2:55 PM,57.2,30.2,36,30.26,10.0,NNE,11.5,-,N/A,,Clear,20,2012-10-04 19:55:00
3:15 PM,57.2,30.2,36,30.25,10.0,NNE,15.0,19.6,N/A,,Clear,20,2012-10-04 20:15:00
3:35 PM,57.2,30.2,36,30.25,10.0,North,10.4,18.4,N/A,,Clear,360,2012-10-04 20:35:00
3:55 PM,57.2,30.2,36,30.24,10.0,NNE,13.8,21.9,N/A,,Clear,30,2012-10-04 20:55:00
4:15 PM,59.0,30.2,34,30.24,10.0,NNE,13.8,-,N/A,,Clear,20,2012-10-04 21:15:00
4:35 PM,57.2,30.2,36,30.24,10.0,North,13.8,19.6,N/A,,Clear,10,2012-10-04 21:35:00
4:55 PM,57.2,30.2,36,30.23,10.0,NNE,11.5,-,N/A,,Clear,30,2012-10-04 21:55:00
5:15 PM,57.2,28.4,33,30.24,10.0,NNE,12.7,-,N/A,,Clear,30,2012-10-04 22:15:00
5:35 PM,57.2,28.4,33,30.23,10.0,NNE,10.4,-,N/A,,Clear,20,2012-10-04 22:35:00
5:55 PM,57.2,30.2,36,30.23,10.0,NNE,11.5,16.1,N/A,,Clear,30,2012-10-04 22:55:00
6:15 PM,57.2,28.4,33,30.23,10.0,NNE,11.5,-,N/A,,Clear,30,2012-10-04 23:15:00
6:35 PM,55.4,28.4,36,30.23,10.0,NE,12.7,-,N/A,,Clear,50,2012-10-04 23:35:00
6:55 PM,55.4,28.4,36,30.24,10.0,ENE,11.5,-,N/A,,Clear,60,2012-10-04 23:55:00
7:15 PM,53.6,28.4,38,30.24,10.0,ENE,10.4,-,N/A,,Clear,60,2012-10-05 00:15:00
7:35 PM,53.6,28.4,38,30.25,10.0,NE,9.2,-,N/A,,Clear,50,2012-10-05 00:35:00
7:55 PM,51.8,26.6,38,30.25,10.0,NE,6.9,-,N/A,,Clear,50,2012-10-05 00:55:00
8:15 PM,48.2,26.6,43,30.25,10.0,NE,5.8,-,N/A,,Clear,50,2012-10-05 01:15:00
8:35 PM,48.2,28.4,46,30.25,10.0,NE,6.9,-,N/A,,Clear,50,2012-10-05 01:35:00
8:55 PM,46.4,28.4,50,30.26,10.0,NNE,6.9,-,N/A,,Clear,20,2012-10-05 01:55:00
9:15 PM,48.2,28.4,46,30.26,10.0,NE,9.2,-,N/A,,Clear,40,2012-10-05 02:15:00
9:35 PM,50.0,28.4,43,30.27,10.0,NNE,9.2,-,N/A,,Clear,30,2012-10-05 02:35:00
9:55 PM,50.0,28.4,43,30.28,10.0,NE,8.1,-,N/A,,Scattered Clouds,40,2012-10-05 02:55:00
10:15 PM,50.0,30.2,47,30.27,10.0,ENE,8.1,-,N/A,,Mostly Cloudy,60,2012-10-05 03:15:00
10:35 PM,50.0,28.4,43,30.27,10.0,NE,9.2,-,N/A,,Scattered Clouds,50,2012-10-05 03:35:00
10:55 PM,50.0,28.4,43,30.29,10.0,NNE,8.1,-,N/A,,Scattered Clouds,20,2012-10-05 03:55:00
11:15 PM,48.2,30.2,50,30.28,10.0,NE,10.4,-,N/A,,Mostly Cloudy,40,2012-10-05 04:15:00
11:35 PM,48.2,28.4,46,30.29,10.0,NE,6.9,-,N/A,,Scattered Clouds,40,2012-10-05 04:35:00
11:55 PM,48.2,28.4,46,30.29,10.0,NE,8.1,-,N/A,,Partly Cloudy,40,2012-10-05 04:55:00